Date String (YYYY-MM-DD hh:mm:ss) UTC,Instrument flags,absolute air pressure of the measurement (hPa),sample flow rate (lpm),inlet stack bypass flow (lpm),air temperature of the measurement (°C),ambient temperature measured by the external sensor (°C),aerosol sample conditioner tube jacket temperature (°C),OPC LED temperature (°C),internal box temperature (°C),relative humidity of the measurement (%),span deviation,mass concentration of particles derived from Lorenz-Mie calculation of OPC scattering (μg/m³),mass concentration of particles derived from Lorenz-Mie calculation of OPC scattering (μg/m³),mass concentration of particles derived from Lorenz-Mie calculation of OPC scattering (μg/m³)
DateTimeUTC,F1_M11,P_M11,Q1_M11,Q2_M11,T1_M11,T2_M11,T3_M11,T4_M11,T5_M11,U1_M11,ZSPAN_M11,X2_M11,X0_M11,X1_M11
2023-12-06 11:00:00,SystemResetWarning,0834.1,5.00,000.00,024.2,023.3,000.0,032.6,025.5,13.2,0000.0,0000.74,0000.92,0000.63
2023-12-06 11:01:00,SystemResetWarning,0834.1,5.00,000.00,024.2,023.3,000.0,032.6,025.5,13.2,0000.0,0000.73,0000.99,0000.63
2023-12-06 11:02:00,SystemResetWarning,0834.1,5.00,000.00,024.2,023.3,000.0,032.6,025.5,13.1,0000.0,0000.75,0001.15,0000.65
2023-12-06 11:03:00,SystemResetWarning,0834.1,5.00,000.00,024.3,023.3,000.0,032.6,025.6,13.1,0000.0,0000.79,0001.20,0000.67
2023-12-06 11:04:00,SystemResetWarning,0834.1,5.00,000.00,024.2,023.3,000.0,032.6,025.5,13.0,0000.0,0000.80,0001.22,0000.69
2023-12-06 11:05:00,SystemResetWarning,0834.1,5.00,000.00,024.2,023.3,000.0,032.6,025.6,13.0,0000.0,0000.81,0001.21,0000.70
2023-12-06 11:06:00,SystemResetWarning,0834.1,5.01,000.00,024.2,023.3,000.0,032.6,025.5,13.0,0000.0,0000.87,0001.29,0000.74
2023-12-06 11:07:00,SystemResetWarning,0834.1,5.01,000.00,024.3,023.3,000.0,032.6,025.5,13.3,0000.0,0000.93,0001.38,0000.80
2023-12-06 11:08:00,SystemResetWarning,0834.1,5.00,000.00,024.3,023.3,000.0,032.6,025.5,13.5,0000.0,0001.02,0001.62,0000.88
2023-12-06 11:09:00,SystemResetWarning,0834.2,5.00,000.00,024.2,023.3,000.0,032.6,025.5,13.6,0000.0,0001.06,0001.67,0000.91
2023-12-06 11:10:00,SystemResetWarning,0834.2,5.00,000.00,024.2,023.3,000.0,032.6,025.5,13.6,0000.0,0001.07,0001.69,0000.90
2023-12-06 11:11:00,SystemResetWarning,0834.1,5.00,000.00,024.2,023.3,000.0,032.6,025.5,13.6,0000.0,0001.06,0002.07,0000.89
2023-12-06 11:12:00,SystemResetWarning,0834.1,5.00,000.00,024.2,023.3,000.0,032.6,025.5,13.6,0000.0,0001.08,0002.41,0000.89
2023-12-06 11:13:00,SystemResetWarning,0834.1,5.00,000.00,024.2,023.3,000.0,032.5,025.5,13.6,0000.0,0001.05,0002.85,0000.86
2023-12-06 11:14:00,SystemResetWarning,0834.1,5.00,000.00,024.2,023.3,000.0,032.5,025.5,13.6,0000.0,0001.03,0002.92,0000.86
2023-12-06 11:15:00,SystemResetWarning,0834.1,5.01,000.00,024.3,023.3,000.0,032.6,025.6,13.6,0000.0,0001.04,0002.91,0000.87
2023-12-06 11:16:00,SystemResetWarning,0834.1,5.00,000.00,024.3,023.3,000.0,032.6,025.5,13.5,0000.0,0001.10,0002.97,0000.94
2023-12-06 11:17:00,SystemResetWarning,0834.1,5.01,000.00,024.3,023.3,000.0,032.6,025.5,13.6,0000.0,0001.20,0003.03,0001.06
2023-12-06 11:18:00,SystemResetWarning,0834.1,5.00,000.00,024.2,023.3,000.0,032.6,025.5,13.6,0000.0,0001.29,0003.11,0001.15
2023-12-06 11:19:00,SystemResetWarning,0834.1,4.99,000.00,024.2,023.3,000.0,032.6,025.5,13.6,0000.0,0001.36,0003.90,0001.25
2023-12-06 11:20:00,SystemResetWarning,0834.1,5.00,000.00,024.2,023.3,000.0,032.6,025.5,13.5,0000.0,0001.50,0004.28,0001.36
2023-12-06 11:21:00,SystemResetWarning,0834.0,4.99,000.00,024.2,023.3,000.0,032.6,025.5,13.2,0000.0,0001.68,0004.53,0001.53
2023-12-06 11:22:00,SystemResetWarning,0834.1,5.00,000.00,024.2,023.3,000.0,032.6,025.5,12.9,0000.0,0001.81,0004.39,0001.65
2023-12-06 11:23:00,SystemResetWarning,0834.1,5.01,000.00,024.2,023.3,000.0,032.6,025.5,12.9,0000.0,0001.94,0004.19,0001.80
2023-12-06 11:24:00,SystemResetWarning,0834.1,5.00,000.00,024.2,023.3,000.0,032.5,025.5,12.9,0000.0,0002.11,0003.72,0001.96
2023-12-06 11:25:00,SystemResetWarning,0834.1,4.99,000.00,024.2,023.3,000.0,032.5,025.5,13.0,0000.0,0002.25,0003.69,0002.10
2023-12-06 11:26:00,SystemResetWarning,0834.1,5.00,000.00,024.2,023.3,000.0,032.5,025.5,13.1,0000.0,0002.39,0003.87,0002.22
2023-12-06 11:27:00,SystemResetWarning,0834.1,4.99,000.00,024.2,023.2,000.0,032.5,025.5,13.1,0000.0,0002.50,0004.02,0002.31
2023-12-06 11:28:00,SystemResetWarning,0834.1,5.01,000.00,024.2,023.2,000.0,032.5,025.5,12.9,0000.0,0002.52,0004.04,0002.33
2023-12-06 11:29:00,SystemResetWarning,0834.1,5.00,000.00,024.2,023.2,000.0,032.5,025.5,12.7,0000.0,0002.51,0004.03,0002.32
2023-12-06 11:30:00,SystemResetWarning,0834.0,5.01,000.00,024.2,023.2,000.0,032.5,025.5,12.6,0000.0,0002.48,0003.42,0002.28
2023-12-06 11:31:00,SystemResetWarning,0834.0,5.00,000.00,024.2,023.2,000.0,032.5,025.5,12.6,0000.0,0002.38,0002.90,0002.18
2023-12-06 11:32:00,SystemResetWarning,0834.0,5.00,000.00,024.2,023.2,000.0,032.5,025.4,12.7,0000.0,0002.23,0002.64,0002.06
2023-12-06 11:33:00,SystemResetWarning,0834.0,4.99,000.00,024.2,023.2,000.0,032.5,025.5,12.7,0000.0,0002.11,0002.47,0001.96
2023-12-06 11:34:00,SystemResetWarning,0834.0,4.99,000.00,024.2,023.2,000.0,032.5,025.5,12.6,0000.0,0002.01,0002.37,0001.86
2023-12-06 11:35:00,SystemResetWarning,0834.0,5.01,000.00,024.1,023.2,000.0,032.5,025.5,12.5,0000.0,0001.91,0002.23,0001.77
2023-12-06 11:36:00,SystemResetWarning,0834.0,5.01,000.00,024.1,023.1,000.0,032.5,025.4,12.2,0000.0,0001.84,0002.23,0001.70
2023-12-06 11:37:00,SystemResetWarning,0834.0,5.01,000.00,024.1,023.1,000.0,032.5,025.4,12.6,0000.0,0001.75,0002.13,0001.63
2023-12-06 11:38:00,SystemResetWarning,0834.0,4.99,000.00,024.1,023.1,000.0,032.5,025.4,12.7,0000.0,0001.63,0002.00,0001.51
2023-12-06 11:39:00,SystemResetWarning,0834.0,4.99,000.00,024.1,023.1,000.0,032.5,025.3,12.7,0000.0,0001.49,0001.87,0001.37
2023-12-06 11:40:00,SystemResetWarning,0834.0,5.00,000.00,024.1,023.1,000.0,032.5,025.3,12.5,0000.0,0001.36,0001.74,0001.23
2023-12-06 11:41:00,SystemResetWarning,0834.1,5.00,000.00,024.1,023.1,000.0,032.5,025.3,12.7,0000.0,0001.22,0001.55,0001.10
2023-12-06 11:42:00,SystemResetWarning,0834.0,4.99,000.00,024.1,023.1,000.0,032.5,025.3,12.7,0000.0,0001.13,0001.41,0001.04
2023-12-06 11:43:00,SystemResetWarning,0834.0,4.99,000.00,024.1,023.1,000.0,032.5,025.3,12.4,0000.0,0001.12,0001.43,0001.00
2023-12-06 11:44:00,SystemResetWarning,0833.9,5.00,000.00,024.1,023.1,000.0,032.5,025.3,12.0,0000.0,0001.08,0001.41,0000.95
2023-12-06 11:45:00,SystemResetWarning,0833.9,5.01,000.00,024.1,023.1,000.0,032.5,025.3,11.8,0000.0,0001.02,0001.37,0000.88
2023-12-06 11:46:00,SystemResetWarning,0833.9,5.01,000.00,024.1,023.1,000.0,032.4,025.3,11.7,0000.0,0000.94,0001.27,0000.81
2023-12-06 11:47:00,SystemResetWarning,0833.9,5.00,000.00,024.1,023.1,000.0,032.4,025.3,11.8,0000.0,0000.86,0001.10,0000.74
2023-12-06 11:48:00,SystemResetWarning,0833.9,5.00,000.00,024.1,023.1,000.0,032.4,025.3,11.9,0000.0,0000.78,0001.04,0000.65
2023-12-06 11:49:00,SystemResetWarning,0834.0,5.00,000.00,024.1,023.1,000.0,032.4,025.3,12.2,0000.0,0000.74,0000.98,0000.60
2023-12-06 11:50:00,SystemResetWarning,0834.0,5.00,000.00,024.1,023.1,000.0,032.4,025.3,12.3,0000.0,0000.70,0000.95,0000.57
2023-12-06 11:51:00,SystemResetWarning,0833.9,5.00,000.00,024.0,023.1,000.0,032.4,025.3,12.4,0000.0,0000.64,0000.92,0000.53
2023-12-06 11:52:00,SystemResetWarning,0833.9,5.00,000.00,024.0,023.1,000.0,032.4,025.3,12.4,0000.0,0000.59,0000.93,0000.47
2023-12-06 11:53:00,SystemResetWarning,0833.9,5.00,000.00,024.0,023.1,000.0,032.4,025.3,12.2,0000.0,0000.53,0000.87,0000.41
2023-12-06 11:54:00,SystemResetWarning,0834.0,5.00,000.00,024.0,023.1,000.0,032.4,025.3,11.6,0000.0,0000.46,0000.76,0000.37
2023-12-06 11:55:00,SystemResetWarning,0834.0,4.99,000.00,024.0,023.1,000.0,032.4,025.2,11.5,0000.0,0000.40,0000.67,0000.32
2023-12-06 11:56:00,SystemResetWarning,0834.0,5.00,000.00,024.0,023.1,000.0,032.4,025.2,11.6,0000.0,0000.38,0000.66,0000.30
2023-12-06 11:57:00,SystemResetWarning,0833.9,5.00,000.00,024.0,023.1,000.0,032.4,025.2,11.5,0000.0,0000.35,0000.62,0000.27
2023-12-06 11:58:00,SystemResetWarning,0833.9,4.99,000.00,024.0,023.0,000.0,032.4,025.2,11.4,0000.0,0000.29,0000.55,0000.21
2023-12-06 11:59:00,SystemResetWarning,0833.9,5.00,000.00,024.0,023.0,000.0,032.4,025.2,11.4,0000.0,0000.26,0000.49,0000.19
